Weather in Nanded

India     19°09′44″N   77°18′38″E
temp.,
°C
wind,
m/s
gust,
m/s
humid.,
%
clouds,
%
prec.,
mm/h
press.,
hPa
HPBL,
m
11 may, tue
tue1123:30+34sse37374 0.0 1005331
02:30+33s41039100 0.0 1004613
05:30+31wsw47325 0.0 1004195
08:30+35nnw571530 0.0 10071168
11:30+39nw551528 0.0 10062699
14:30+41wnw55145 0.0 10033724
17:30+40wnw67166 0.0 10013844
20:30+37wnw341977 0.0 100282
12 may, wed
wed1223:30+35nw222366 0.0 100422
02:30+33nw511235 0.0 1003388
05:30+30nw49291 0.0 1004231
08:30+35nnw451921 0.0 1006981
11:30+39nw44165 0.0 10052401
14:30+40wsw47164 0.0 10014215
17:30+40wsw561639 0.0 9993957
20:30+37w371887 0.0 1000182
13 may, thu
thu1323:30+36nw472161 0.0 1001224
02:30+33nw482285 0.0 1001260
05:30+30wnw222824 0.0 100321
08:30+32nw4624100 0.1 1006810
11:30+37nw3517100 0.4 10052074
14:30+40w351699 0.0 10013534
17:30+39wnw47164 0.0 10003944
20:30+36w37180 0.0 1001183
14 may, fri
fri1423:30+36nw2419100 0.0 1001114
02:30+32nw37192 0.0 1002132
05:30+30nw37250 0.0 1002151
08:30+35nnw46233 0.0 1004854
11:30+40ne4315100 0.0 10023381
14:30+42ne121389 0.0 9994197
17:30+41sse221210 0.0 9984353
20:30+39sw231461 0.0 100080
15 may, sat
sat1523:30+36sse6102853 0.0 1001425
02:30+35sse71034100 0.0 10001163
05:30+33sse5941100 0.0 1001544
08:30+35ssw6732100 0.0 10031279
11:30+39ssw462597 0.0 10023171
14:30+40se662062 0.1 9983359
17:30+38se682456 0.1 9991246
20:30+36se3726100 0.1 1001389